sat.trackr.live / text

‹ back to catalog

STARLINK-34958

NORAD 65237 · 2025-179C

PAYLOAD ACTIVE UNKNOWN

§ Identity

Operator
Country
US
Launch date
2025-08-18
Launch site
AFWTR
Launch vehicle
Mass (kg)
RCS (m²)

Purposes: comms

External: N2YO · Heavens-Above · Gunter

§ Orbital elements

Epoch: 2026-09-20T14:10:07.665600Z

Period
93.90 min
Inclination
97.2831°
Eccentricity
0.0000833
Mean motion
15.33475358 rev/d
Perigee alt
464.9 km
Apogee alt
466.0 km
Semi-major
6,843.6 km
B*
4.7761e-4
RAAN
302.8625°
Arg perigee
102.6700°
Mean anomaly
257.4636°
Rev number
6,147

§ Raw data

STARLINK-349581 65237U 25179C   26263.59036650  .00015390  00000+0  47761-3 0  99952 65237  97.2831 302.8625 0000833 102.6700 257.4636 15.33475358 61476

JSON: /api/v1/satellites/65237 · /tle

For live sub-satellite position, see the globe view (requires WebGL).

§ Visibility from observer

Set your observer location to see the next 7 days of passes ≥ 10°. The values pass through the URL so the page stays shareable.

No JS? Fill the form by hand. The geolocation button needs JavaScript.